| time (UTC) | temp C | wind direction | speed KPH | gust KPH | rain 1hr cm | rain 24hr cm | rain mn cm | humidity % | barometer mb |
| 20260831075532 | 22 | 62 | 1.6 | 4.8 | 0.00 | 0.00 | 0.00 | 86 | 1018.6 |
| 20260831075031 | 22 | 62 | 1.6 | 6.4 | 0.00 | 0.00 | 0.00 | 86 | 1018.7 |
| 20260831074552 | 22 | 62 | 1.6 | 6.4 | 0.00 | 0.00 | 0.00 | 85 | 1018.8 |
| 20260831074030 | 22 | 67 | 1.6 | 4.8 | 0.00 | 0.00 | 0.00 | 85 | 1018.8 |
| 20260831073531 | 22 | 303 | 1.6 | 4.8 | 0.00 | 0.00 | 0.00 | 85 | 1018.8 |
| 20260831073055 | 22 | 303 | 1.6 | 4.8 | 0.00 | 0.00 | 0.00 | 85 | 1018.8 |
| 20260831072556 | 22 | 303 | 0.0 | 4.8 | 0.00 | 0.00 | 0.00 | 85 | 1018.8 |
| 20260831072034 | 22 | 303 | 1.6 | 6.4 | 0.00 | 0.00 | 0.00 | 85 | 1018.9 |
| 20260831071532 | 22 | 318 | 3.2 | 6.4 | 0.00 | 0.00 | 0.00 | 84 | 1018.8 |
| 20260831071051 | 22 | 311 | 3.2 | 8.0 | 0.00 | 0.00 | 0.00 | 84 | 1018.9 |
| 20260831070531 | 22 | 355 | 6.4 | 9.7 | 0.00 | 0.00 | 0.00 | 83 | 1019.0 |
| 20260831070030 | 22 | 311 | 6.4 | 9.7 | 0.00 | 0.00 | 0.00 | 83 | 1018.9 |
| 20260831065527 | 22 | 325 | 3.2 | 6.4 | 0.00 | 0.00 | 0.00 | 83 | 1018.9 |
| 20260831065026 | 22 | 71 | 0.0 | 0.0 | 0.00 | 0.00 | 0.00 | 82 | 1018.8 |
| 20260831064544 | 22 | 71 | 0.0 | 4.8 | 0.00 | 0.00 | 0.00 | 83 | 1018.9 |
| 20260831064043 | 23 | 71 | 0.0 | 4.8 | 0.00 | 0.00 | 0.00 | 82 | 1018.7 |
| 20260831063540 | 23 | 71 | 1.6 | 4.8 | 0.00 | 0.00 | 0.00 | 82 | 1018.7 |
| 20260831063040 | 23 | 71 | 1.6 | 9.7 | 0.00 | 0.00 | 0.00 | 82 | 1018.7 |
| 20260831062536 | 23 | 71 | 1.6 | 9.7 | 0.00 | 0.00 | 0.00 | 82 | 1018.8 |
| 20260831062035 | 23 | 68 | 3.2 | 8.0 | 0.00 | 0.00 | 0.00 | 82 | 1018.9 |
| 20260831061532 | 23 | 27 | 4.8 | 9.7 | 0.00 | 0.00 | 0.00 | 82 | 1019.0 |
| 20260831061055 | 23 | 58 | 3.2 | 14.5 | 0.00 | 0.00 | 0.00 | 82 | 1019.1 |
| 20260831060533 | 23 | 24 | 4.8 | 14.5 | 0.00 | 0.00 | 0.00 | 82 | 1019.1 |
| 20260831060035 | 23 | 5 | 4.8 | 14.5 | 0.00 | 0.00 | 0.00 | 82 | 1019.2 |
| 20260831055531 | 23 | 355 | 6.4 | 14.5 | 0.00 | 0.00 | 0.00 | 82 | 1019.2 |
| 20260831055030 | 23 | 9 | 4.8 | 9.7 | 0.00 | 0.00 | 0.00 | 82 | 1019.2 |
| 20260831054529 | 23 | 19 | 4.8 | 9.7 | 0.00 | 0.00 | 0.00 | 82 | 1019.2 |
| 20260831054027 | 23 | 5 | 3.2 | 16.1 | 0.00 | 0.00 | 0.00 | 83 | 1019.4 |
| 20260831053525 | 23 | 44 | 6.4 | 11.3 | 0.00 | 0.00 | 0.00 | 83 | 1019.3 |
| 20260831053043 | 23 | 47 | 4.8 | 12.9 | 0.00 | 0.00 | 0.00 | 83 | 1019.3 |
| 20260831052539 | 23 | 30 | 3.2 | 14.5 | 0.00 | 0.00 | 0.00 | 83 | 1019.3 |
| 20260831052040 | 23 | 54 | 4.8 | 14.5 | 0.00 | 0.00 | 0.00 | 83 | 1019.4 |
| 20260831051537 | 23 | 26 | 4.8 | 14.5 | 0.00 | 0.00 | 0.00 | 83 | 1019.5 |
| 20260831051037 | 23 | 20 | 4.8 | 14.5 | 0.00 | 0.00 | 0.00 | 84 | 1019.5 |
| 20260831050534 | 23 | 355 | 6.4 | 17.7 | 0.00 | 0.00 | 0.00 | 84 | 1019.6 |
| 20260831050034 | 23 | 5 | 8.0 | 17.7 | 0.00 | 0.00 | 0.00 | 84 | 1019.5 |
| 20260831045531 | 23 | 15 | 4.8 | 12.9 | 0.00 | 0.00 | 0.00 | 84 | 1019.5 |
| 20260831045034 | 23 | 19 | 4.8 | 8.0 | 0.00 | 0.00 | 0.00 | 85 | 1019.5 |
| 20260831044532 | 23 | 349 | 3.2 | 6.4 | 0.00 | 0.00 | 0.00 | 85 | 1019.3 |
| 20260831044031 | 23 | 187 | 0.0 | 0.0 | 0.00 | 0.00 | 0.00 | 85 | 1019.1 |
| 20260831043549 | 23 | 187 | 0.0 | 0.0 | 0.00 | 0.00 | 0.00 | 85 | 1019.1 |
| 20260831043027 | 23 | 187 | 0.0 | 0.0 | 0.00 | 0.00 | 0.00 | 85 | 1019.1 |
| 20260831042524 | 23 | 187 | 0.0 | 0.0 | 0.00 | 0.00 | 0.00 | 85 | 1019.1 |
| 20260831042044 | 23 | 187 | 0.0 | 0.0 | 0.00 | 0.00 | 0.00 | 85 | 1019.1 |
| 20260831041540 | 23 | 187 | 0.0 | 1.6 | 0.00 | 0.00 | 0.00 | 85 | 1019.2 |
| 20260831041040 | 23 | 187 | 1.6 | 4.8 | 0.00 | 0.00 | 0.00 | 85 | 1019.3 |
| 20260831040537 | 23 | 187 | 0.0 | 4.8 | 0.00 | 0.00 | 0.00 | 84 | 1019.3 |
| 20260831040036 | 23 | 187 | 1.6 | 4.8 | 0.00 | 0.00 | 0.00 | 83 | 1019.3 |
| 20260831035534 | 23 | 187 | 3.2 | 4.8 | 0.00 | 0.00 | 0.00 | 83 | 1019.3 |
| 20260831035033 | 23 | 187 | 0.0 | 4.8 | 0.00 | 0.00 | 0.00 | 83 | 1019.3 |
| 20260831034531 | 24 | 187 | 1.6 | 4.8 | 0.00 | 0.00 | 0.00 | 83 | 1019.4 |
| 20260831034031 | 24 | 187 | 3.2 | 3.2 | 0.00 | 0.00 | 0.00 | 84 | 1019.6 |
| 20260831033531 | 24 | 187 | 0.0 | 1.6 | 0.00 | 0.00 | 0.00 | 84 | 1019.7 |
| 20260831033050 | 24 | 187 | 0.0 | 1.6 | 0.00 | 0.00 | 0.00 | 85 | 1019.8 |
| 20260831032525 | 24 | 187 | 0.0 | 3.2 | 0.00 | 0.00 | 0.00 | 85 | 1019.9 |
| 20260831032044 | 24 | 187 | 1.6 | 3.2 | 0.00 | 0.00 | 0.00 | 85 | 1019.8 |
| 20260831031541 | 24 | 187 | 0.0 | 1.6 | 0.00 | 0.00 | 0.00 | 86 | 1019.9 |
| 20260831031041 | 24 | 187 | 0.0 | 3.2 | 0.00 | 0.00 | 0.00 | 85 | 1019.7 |
| 20260831030537 | 24 | 187 | 0.0 | 4.8 | 0.00 | 0.00 | 0.00 | 85 | 1019.6 |
| 20260831030036 | 25 | 187 | 3.2 | 4.8 | 0.00 | 0.00 | 0.00 | 85 | 1019.6 |
| 20260831025535 | 25 | 187 | 3.2 | 4.8 | 0.00 | 0.00 | 0.00 | 85 | 1019.6 |
| 20260831025034 | 25 | 187 | 0.0 | 3.2 | 0.00 | 0.00 | 0.00 | 84 | 1019.7 |
| 20260831024531 | 25 | 187 | 0.0 | 3.2 | 0.00 | 0.00 | 0.00 | 84 | 1019.7 |
| 20260831024051 | 25 | 187 | 0.0 | 1.6 | 0.00 | 0.00 | 0.00 | 83 | 1019.8 |
| 20260831023547 | 25 | 187 | 0.0 | 1.6 | 0.00 | 0.00 | 0.00 | 82 | 1019.7 |
| 20260831023044 | 25 | 187 | 0.0 | 0.0 | 0.00 | 0.00 | 0.00 | 82 | 1019.8 |
| 20260831022541 | 25 | 187 | 0.0 | 0.0 | 0.00 | 0.00 | 0.00 | 83 | 1019.8 |
| 20260831022039 | 25 | 187 | 0.0 | 0.0 | 0.00 | 0.00 | 0.00 | 82 | 1019.7 |
| 20260831021537 | 25 | 187 | 0.0 | 0.0 | 0.00 | 0.00 | 0.00 | 81 | 1019.8 |
| 20260831021035 | 25 | 187 | 0.0 | 0.0 | 0.00 | 0.00 | 0.00 | 80 | 1019.8 |
| 20260831020558 | 25 | 187 | 0.0 | 0.0 | 0.00 | 0.00 | 0.00 | 79 | 1019.8 |
| 20260831020039 | 25 | 187 | 0.0 | 0.0 | 0.00 | 0.00 | 0.00 | 80 | 1019.7 |
| 20260831015535 | 25 | 187 | 0.0 | 0.0 | 0.00 | 0.00 | 0.00 | 79 | 1019.7 |
| 20260831015035 | 25 | 187 | 0.0 | 0.0 | 0.00 | 0.00 | 0.00 | 78 | 1019.7 |
| 20260831014533 | 25 | 187 | 0.0 | 0.0 | 0.00 | 0.00 | 0.00 | 78 | 1019.7 |
| 20260831014032 | 26 | 187 | 0.0 | 0.0 | 0.00 | 0.00 | 0.00 | 78 | 1019.7 |
| 20260831013529 | 26 | 187 | 0.0 | 0.0 | 0.00 | 0.00 | 0.00 | 77 | 1019.6 |
| 20260831013028 | 26 | 187 | 0.0 | 1.6 | 0.00 | 0.00 | 0.00 | 76 | 1019.6 |
| 20260831012525 | 26 | 187 | 0.0 | 1.6 | 0.00 | 0.00 | 0.00 | 76 | 1019.5 |
| 20260831012043 | 26 | 187 | 0.0 | 0.0 | 0.00 | 0.00 | 0.00 | 77 | 1019.5 |
| 20260831011539 | 26 | 187 | 0.0 | 3.2 | 0.00 | 0.00 | 0.00 | 76 | 1019.4 |
| 20260831011039 | 26 | 187 | 1.6 | 3.2 | 0.00 | 0.00 | 0.00 | 76 | 1019.3 |
| 20260831010534 | 26 | 187 | 0.0 | 0.0 | 0.00 | 0.00 | 0.00 | 77 | 1019.4 |
| 20260831010034 | 26 | 187 | 0.0 | 0.0 | 0.00 | 0.00 | 0.00 | 76 | 1019.3 |
| 20260831005530 | 26 | 187 | 0.0 | 0.0 | 0.00 | 0.00 | 0.00 | 76 | 1019.2 |
| 20260831005034 | 26 | 187 | 0.0 | 0.0 | 0.00 | 0.00 | 0.00 | 76 | 1019.1 |
| 20260831004531 | 26 | 187 | 0.0 | 0.0 | 0.00 | 0.00 | 0.00 | 76 | 1019.1 |
| 20260831004031 | 26 | 187 | 0.0 | 0.0 | 0.00 | 0.00 | 0.00 | 76 | 1019.1 |
| 20260831003528 | 26 | 187 | 0.0 | 0.0 | 0.00 | 0.00 | 0.00 | 75 | 1019.0 |
| 20260831003028 | 26 | 187 | 0.0 | 0.0 | 0.00 | 0.00 | 0.00 | 75 | 1018.9 |
| 20260831002545 | 26 | 187 | 0.0 | 0.0 | 0.00 | 0.00 | 0.00 | 75 | 1018.8 |
| 20260831002044 | 26 | 187 | 0.0 | 4.8 | 0.00 | 0.00 | 0.00 | 75 | 1018.7 |
| 20260831001541 | 26 | 187 | 1.6 | 4.8 | 0.00 | 0.00 | 0.00 | 75 | 1018.7 |
| 20260831001041 | 26 | 187 | 0.0 | 1.6 | 0.00 | 0.00 | 0.00 | 75 | 1018.7 |
| 20260831000538 | 26 | 187 | 0.0 | 1.6 | 0.00 | 0.00 | 0.00 | 74 | 1018.6 |
| 20260831000038 | 26 | 187 | 0.0 | 1.6 | 0.00 | 0.00 | 0.00 | 74 | 1018.5 |
| 20260830235533 | 26 | 187 | 0.0 | 1.6 | 0.00 | 0.00 | 0.00 | 74 | 1018.5 |
| 20260830235032 | 27 | 187 | 0.0 | 3.2 | 0.00 | 0.00 | 0.00 | 74 | 1018.4 |
| 20260830234529 | 27 | 187 | 1.6 | 3.2 | 0.00 | 0.00 | 0.00 | 73 | 1018.4 |
| 20260830234054 | 27 | 187 | 0.0 | 3.2 | 0.00 | 0.00 | 0.00 | 73 | 1018.4 |
| 20260830233556 | 27 | 187 | 0.0 | 3.2 | 0.00 | 0.00 | 0.00 | 72 | 1018.4 |
| 20260830233033 | 27 | 187 | 0.0 | 3.2 | 0.00 | 0.00 | 0.00 | 73 | 1018.3 |
| 20260830232534 | 27 | 187 | 1.6 | 4.8 | 0.00 | 0.00 | 0.00 | 72 | 1018.4 |
| 20260830232032 | 27 | 187 | 1.6 | 6.4 | 0.00 | 0.00 | 0.00 | 71 | 1018.4 |
| 20260830231550 | 27 | 187 | 3.2 | 6.4 | 0.00 | 0.00 | 0.00 | 71 | 1018.5 |
| 20260830231029 | 27 | 187 | 1.6 | 6.4 | 0.00 | 0.00 | 0.00 | 71 | 1018.5 |
| 20260830230543 | 27 | 187 | 3.2 | 8.0 | 0.00 | 0.00 | 0.00 | 70 | 1018.4 |
| 20260830230042 | 27 | 187 | 4.8 | 8.0 | 0.00 | 0.00 | 0.00 | 70 | 1018.3 |
| 20260830225541 | 27 | 187 | 3.2 | 8.0 | 0.00 | 0.00 | 0.00 | 69 | 1018.4 |
| 20260830225041 | 27 | 187 | 4.8 | 8.0 | 0.00 | 0.00 | 0.00 | 69 | 1018.4 |
| 20260830224536 | 27 | 187 | 4.8 | 9.7 | 0.00 | 0.00 | 0.00 | 68 | 1018.3 |
| 20260830224035 | 28 | 199 | 4.8 | 9.7 | 0.00 | 0.00 | 0.00 | 68 | 1018.5 |
| 20260830223532 | 28 | 182 | 4.8 | 8.0 | 0.00 | 0.00 | 0.00 | 67 | 1018.6 |
| 20260830223034 | 28 | 191 | 6.4 | 8.0 | 0.00 | 0.00 | 0.00 | 66 | 1018.5 |
| 20260830222533 | 28 | 191 | 4.8 | 8.0 | 0.00 | 0.00 | 0.00 | 66 | 1018.6 |
| 20260830222033 | 28 | 177 | 4.8 | 12.9 | 0.00 | 0.00 | 0.00 | 66 | 1018.5 |
| 20260830221531 | 28 | 150 | 6.4 | 12.9 | 0.00 | 0.00 | 0.00 | 65 | 1018.6 |
| 20260830221031 | 28 | 164 | 8.0 | 12.9 | 0.00 | 0.00 | 0.00 | 65 | 1018.4 |
| 20260830220533 | 28 | 172 | 8.0 | 14.5 | 0.00 | 0.00 | 0.00 | 65 | 1018.4 |
| 20260830220033 | 28 | 171 | 9.7 | 14.5 | 0.00 | 0.00 | 0.00 | 66 | 1018.4 |
| 20260830215530 | 28 | 167 | 9.7 | 14.5 | 0.00 | 0.00 | 0.00 | 67 | 1018.4 |
| 20260830215051 | 28 | 184 | 8.0 | 12.9 | 0.00 | 0.00 | 0.00 | 68 | 1018.3 |
| 20260830214552 | 28 | 163 | 8.0 | 14.5 | 0.00 | 0.00 | 0.00 | 67 | 1018.4 |
| 20260830214032 | 28 | 202 | 9.7 | 14.5 | 0.00 | 0.00 | 0.00 | 66 | 1018.3 |
| 20260830213530 | 29 | 184 | 9.7 | 14.5 | 0.00 | 0.00 | 0.00 | 65 | 1018.3 |
| 20260830213030 | 30 | 176 | 9.7 | 14.5 | 0.00 | 0.00 | 0.00 | 64 | 1018.2 |
| 20260830212529 | 30 | 183 | 11.3 | 14.5 | 0.00 | 0.00 | 0.00 | 62 | 1018.4 |
| 20260830212054 | 30 | 173 | 8.0 | 16.1 | 0.00 | 0.00 | 0.00 | 62 | 1018.3 |
| 20260830211533 | 31 | 169 | 8.0 | 16.1 | 0.00 | 0.00 | 0.00 | 62 | 1018.4 |
| 20260830211032 | 31 | 138 | 11.3 | 16.1 | 0.00 | 0.00 | 0.00 | 60 | 1018.4 |
| 20260830210531 | 32 | 167 | 8.0 | 12.9 | 0.00 | 0.00 | 0.00 | 57 | 1018.3 |
| 20260830210031 | 32 | 171 | 6.4 | 11.3 | 0.00 | 0.00 | 0.00 | 54 | 1018.3 |
| 20260830205554 | 32 | 268 | 4.8 | 8.0 | 0.00 | 0.00 | 0.00 | 51 | 1018.2 |
| 20260830205036 | 32 | 295 | 3.2 | 14.5 | 0.00 | 0.00 | 0.00 | 51 | 1018.3 |
| 20260830204535 | 32 | 254 | 4.8 | 14.5 | 0.00 | 0.00 | 0.00 | 49 | 1018.3 |
| 20260830204034 | 32 | 269 | 6.4 | 11.3 | 0.00 | 0.00 | 0.00 | 49 | 1018.3 |
| 20260830203552 | 32 | 324 | 6.4 | 9.7 | 0.00 | 0.00 | 0.00 | 52 | 1018.4 |
| 20260830203032 | 32 | 311 | 4.8 | 12.9 | 0.00 | 0.00 | 0.00 | 52 | 1018.4 |
| 20260830202534 | 32 | 294 | 3.2 | 12.9 | 0.00 | 0.00 | 0.00 | 53 | 1018.5 |
| 20260830202035 | 31 | 318 | 3.2 | 11.3 | 0.00 | 0.00 | 0.00 | 56 | 1018.4 |
| 20260830201533 | 31 | 261 | 4.8 | 9.7 | 0.00 | 0.00 | 0.00 | 53 | 1018.5 |
| 20260830201034 | 31 | 257 | 3.2 | 8.0 | 0.00 | 0.00 | 0.00 | 52 | 1018.5 |
| 20260830200557 | 31 | 223 | 3.2 | 12.9 | 0.00 | 0.00 | 0.00 | 53 | 1018.4 |
| 20260830200034 | 32 | 229 | 8.0 | 12.9 | 0.00 | 0.00 | 0.00 | 54 | 1018.5 |
| 20260830195534 | 31 | 254 | 3.2 | 12.9 | 0.00 | 0.00 | 0.00 | 55 | 1018.4 |
| 20260830195034 | 31 | 313 | 4.8 | 12.9 | 0.00 | 0.00 | 0.00 | 52 | 1018.6 |
| 20260830194557 | 31 | 250 | 8.0 | 12.9 | 0.00 | 0.00 | 0.00 | 56 | 1018.6 |
| 20260830194036 | 31 | 342 | 1.6 | 12.9 | 0.00 | 0.00 | 0.00 | 56 | 1018.6 |
| 20260830193534 | 32 | 321 | 6.4 | 12.9 | 0.00 | 0.00 | 0.00 | 56 | 1018.7 |
| 20260830193035 | 32 | 286 | 3.2 | 12.9 | 0.00 | 0.00 | 0.00 | 55 | 1018.7 |
| 20260830192533 | 32 | 317 | 4.8 | 12.9 | 0.00 | 0.00 | 0.00 | 55 | 1018.8 |
| 20260830192034 | 32 | 297 | 1.6 | 14.5 | 0.00 | 0.00 | 0.00 | 55 | 1018.8 |
| 20260830191532 | 32 | 296 | 8.0 | 14.5 | 0.00 | 0.00 | 0.00 | 55 | 1019.0 |
| 20260830191036 | 32 | 215 | 3.2 | 12.9 | 0.00 | 0.00 | 0.00 | 53 | 1019.1 |
| 20260830190533 | 32 | 259 | 3.2 | 12.9 | 0.00 | 0.00 | 0.00 | 55 | 1019.2 |
| 20260830190034 | 32 | 267 | 3.2 | 12.9 | 0.00 | 0.00 | 0.00 | 55 | 1019.3 |
| 20260830185532 | 32 | 258 | 3.2 | 14.5 | 0.00 | 0.00 | 0.00 | 57 | 1019.3 |
| 20260830185032 | 31 | 251 | 4.8 | 14.5 | 0.00 | 0.00 | 0.00 | 58 | 1019.4 |
| 20260830184531 | 31 | 217 | 4.8 | 12.9 | 0.00 | 0.00 | 0.00 | 57 | 1019.4 |
| 20260830184032 | 31 | 239 | 6.4 | 12.9 | 0.00 | 0.00 | 0.00 | 59 | 1019.6 |
| 20260830183531 | 31 | 257 | 6.4 | 12.9 | 0.00 | 0.00 | 0.00 | 60 | 1019.7 |
| 20260830183031 | 31 | 250 | 3.2 | 16.1 | 0.00 | 0.00 | 0.00 | 59 | 1019.7 |
| 20260830182528 | 31 | 199 | 11.3 | 16.1 | 0.00 | 0.00 | 0.00 | 58 | 1019.9 |
| 20260830182052 | 31 | 202 | 9.7 | 14.5 | 0.00 | 0.00 | 0.00 | 60 | 1020.0 |
| 20260830181531 | 31 | 145 | 3.2 | 11.3 | 0.00 | 0.00 | 0.00 | 60 | 1020.1 |
| 20260830181032 | 31 | 209 | 4.8 | 17.7 | 0.00 | 0.00 | 0.00 | 59 | 1020.2 |
| 20260830180554 | 30 | 216 | 8.0 | 17.7 | 0.00 | 0.00 | 0.00 | 61 | 1020.2 |
| 20260830180034 | 30 | 213 | 6.4 | 16.1 | 0.00 | 0.00 | 0.00 | 63 | 1020.2 |
| 20260830175532 | 30 | 202 | 8.0 | 16.1 | 0.00 | 0.00 | 0.00 | 61 | 1020.2 |
| 20260830175036 | 30 | 205 | 6.4 | 14.5 | 0.00 | 0.00 | 0.00 | 64 | 1020.3 |
| 20260830174536 | 30 | 224 | 1.6 | 8.0 | 0.00 | 0.00 | 0.00 | 64 | 1020.3 |
| 20260830174036 | 30 | 243 | 3.2 | 12.9 | 0.00 | 0.00 | 0.00 | 63 | 1020.4 |
| 20260830173534 | 30 | 216 | 4.8 | 12.9 | 0.00 | 0.00 | 0.00 | 63 | 1020.5 |
| 20260830173100 | 29 | 223 | 4.8 | 14.5 | 0.00 | 0.00 | 0.00 | 66 | 1020.6 |
| 20260830172536 | 28 | 252 | 4.8 | 14.5 | 0.00 | 0.00 | 0.00 | 67 | 1020.6 |
| 20260830172102 | 28 | 265 | 4.8 | 16.1 | 0.00 | 0.00 | 0.00 | 67 | 1020.7 |
| 20260830171538 | 28 | 180 | 9.7 | 16.1 | 0.00 | 0.00 | 0.00 | 67 | 1020.7 |
| 20260830171038 | 28 | 185 | 8.0 | 14.5 | 0.00 | 0.00 | 0.00 | 66 | 1020.8 |
| 20260830170559 | 28 | 237 | 8.0 | 25.7 | 0.00 | 0.00 | 0.00 | 66 | 1020.8 |
| 20260830170038 | 28 | 187 | 9.7 | 25.7 | 0.00 | 0.00 | 0.00 | 64 | 1020.7 |
| 20260830165540 | 28 | 185 | 8.0 | 22.5 | 0.00 | 0.00 | 0.00 | 64 | 1020.7 |
| 20260830165105 | 28 | 192 | 11.3 | 22.5 | 0.00 | 0.00 | 0.00 | 67 | 1020.9 |
| 20260830164542 | 28 | 189 | 8.0 | 17.7 | 0.00 | 0.00 | 0.00 | 66 | 1020.9 |
| 20260830164040 | 28 | 220 | 9.7 | 19.3 | 0.00 | 0.00 | 0.00 | 66 | 1020.9 |
| 20260830163538 | 28 | 215 | 9.7 | 20.9 | 0.00 | 0.00 | 0.00 | 64 | 1020.9 |
| 20260830163104 | 28 | 167 | 12.9 | 20.9 | 0.00 | 0.00 | 0.00 | 65 | 1020.9 |
| 20260830162540 | 28 | 217 | 12.9 | 20.9 | 0.00 | 0.00 | 0.00 | 66 | 1021.0 |
| 20260830162026 | 28 | 171 | 12.9 | 20.9 | 0.00 | 0.00 | 0.00 | 68 | 1021.0 |
| 20260830161524 | 27 | 198 | 9.7 | 19.3 | 0.00 | 0.00 | 0.00 | 67 | 1021.1 |
| 20260830161043 | 28 | 188 | 14.5 | 19.3 | 0.00 | 0.00 | 0.00 | 66 | 1021.2 |
| 20260830160542 | 28 | 186 | 11.3 | 17.7 | 0.00 | 0.00 | 0.00 | 67 | 1021.1 |
| 20260830160105 | 27 | 182 | 9.7 | 16.1 | 0.00 | 0.00 | 0.00 | 70 | 1021.2 |
| 20260830155543 | 27 | 192 | 6.4 | 16.1 | 0.00 | 0.00 | 0.00 | 69 | 1021.1 |
| 20260830155043 | 27 | 205 | 6.4 | 19.3 | 0.00 | 0.00 | 0.00 | 71 | 1021.2 |
| 20260830154540 | 27 | 190 | 12.9 | 19.3 | 0.00 | 0.00 | 0.00 | 71 | 1021.2 |
| 20260830154041 | 26 | 183 | 11.3 | 19.3 | 0.00 | 0.00 | 0.00 | 71 | 1021.2 |
| 20260830153604 | 26 | 190 | 9.7 | 19.3 | 0.00 | 0.00 | 0.00 | 72 | 1021.2 |
| 20260830153042 | 26 | 177 | 14.5 | 22.5 | 0.00 | 0.00 | 0.00 | 73 | 1021.3 |
| 20260830152540 | 26 | 178 | 12.9 | 17.7 | 0.00 | 0.00 | 0.00 | 75 | 1021.5 |
| 20260830152040 | 25 | 198 | 9.7 | 14.5 | 0.00 | 0.00 | 0.00 | 76 | 1021.6 |
| 20260830151539 | 25 | 209 | 4.8 | 11.3 | 0.00 | 0.00 | 0.00 | 78 | 1021.7 |
| 20260830151039 | 25 | 196 | 4.8 | 11.3 | 0.00 | 0.00 | 0.00 | 77 | 1021.6 |
| 20260830150536 | 25 | 230 | 3.2 | 11.3 | 0.00 | 0.00 | 0.00 | 77 | 1021.6 |
| 20260830150041 | 24 | 232 | 3.2 | 9.7 | 0.00 | 0.00 | 0.00 | 77 | 1021.6 |
| 20260830145539 | 24 | 240 | 3.2 | 9.7 | 0.00 | 0.00 | 0.00 | 78 | 1021.6 |
| 20260830145039 | 24 | 227 | 1.6 | 8.0 | 0.00 | 0.00 | 0.00 | 79 | 1021.6 |
| 20260830144536 | 24 | 208 | 3.2 | 8.0 | 0.00 | 0.00 | 0.00 | 78 | 1021.5 |
| 20260830144037 | 24 | 254 | 3.2 | 11.3 | 0.00 | 0.00 | 0.00 | 79 | 1021.6 |
| 20260830143535 | 24 | 211 | 4.8 | 12.9 | 0.00 | 0.00 | 0.00 | 78 | 1021.6 |
| 20260830143035 | 24 | 210 | 8.0 | 12.9 | 0.00 | 0.00 | 0.00 | 78 | 1021.6 |
| 20260830142533 | 24 | 252 | 1.6 | 6.4 | 0.00 | 0.00 | 0.00 | 79 | 1021.5 |
| 20260830142034 | 24 | 252 | 1.6 | 11.3 | 0.00 | 0.00 | 0.00 | 79 | 1021.5 |
| 20260830141532 | 24 | 184 | 1.6 | 11.3 | 0.00 | 0.00 | 0.00 | 79 | 1021.5 |
| 20260830141031 | 24 | 184 | 4.8 | 11.3 | 0.00 | 0.00 | 0.00 | 79 | 1021.5 |
| 20260830140529 | 23 | 211 | 3.2 | 11.3 | 0.00 | 0.00 | 0.00 | 80 | 1021.3 |
| 20260830140054 | 23 | 218 | 4.8 | 11.3 | 0.00 | 0.00 | 0.00 | 80 | 1021.3 |
| 20260830135530 | 23 | 193 | 3.2 | 9.7 | 0.00 | 0.00 | 0.00 | 81 | 1021.4 |
| 20260830135050 | 23 | 237 | 4.8 | 8.0 | 0.00 | 0.00 | 0.00 | 81 | 1021.3 |
| 20260830134532 | 22 | 246 | 1.6 | 8.0 | 0.00 | 0.00 | 0.00 | 81 | 1021.3 |
| 20260830134057 | 22 | 248 | 1.6 | 8.0 | 0.00 | 0.00 | 0.00 | 82 | 1021.3 |
| 20260830133535 | 22 | 223 | 4.8 | 8.0 | 0.00 | 0.00 | 0.00 | 82 | 1021.5 |
| 20260830133034 | 21 | 200 | 3.2 | 6.4 | 0.00 | 0.00 | 0.00 | 82 | 1021.5 |
| 20260830132533 | 21 | 182 | 4.8 | 6.4 | 0.00 | 0.00 | 0.00 | 82 | 1021.5 |
| 20260830132034 | 21 | 182 | 1.6 | 6.4 | 0.00 | 0.00 | 0.00 | 83 | 1021.6 |
| 20260830131534 | 21 | 182 | 3.2 | 6.4 | 0.00 | 0.00 | 0.00 | 82 | 1021.6 |
| 20260830131038 | 21 | 182 | 3.2 | 6.4 | 0.00 | 0.00 | 0.00 | 82 | 1021.7 |
| 20260830130535 | 21 | 182 | 3.2 | 8.0 | 0.00 | 0.00 | 0.00 | 82 | 1021.7 |
| 20260830130035 | 21 | 182 | 4.8 | 9.7 | 0.00 | 0.00 | 0.00 | 81 | 1021.7 |
| 20260830125534 | 21 | 194 | 1.6 | 4.8 | 0.00 | 0.00 | 0.00 | 82 | 1021.8 |
| 20260830125034 | 20 | 194 | 1.6 | 8.0 | 0.00 | 0.00 | 0.00 | 82 | 1021.8 |
| 20260830124533 | 20 | 198 | 3.2 | 8.0 | 0.00 | 0.00 | 0.00 | 81 | 1021.8 |
| 20260830124032 | 20 | 193 | 3.2 | 6.4 | 0.00 | 0.00 | 0.00 | 81 | 1021.8 |
| 20260830123530 | 20 | 178 | 3.2 | 4.8 | 0.00 | 0.00 | 0.00 | 81 | 1021.9 |
| 20260830123030 | 20 | 178 | 0.0 | 4.8 | 0.00 | 0.00 | 0.00 | 81 | 1021.8 |
| 20260830122550 | 20 | 178 | 3.2 | 4.8 | 0.00 | 0.00 | 0.00 | 82 | 1021.9 |
| 20260830122053 | 19 | 184 | 3.2 | 4.8 | 0.00 | 0.00 | 0.00 | 82 | 1021.9 |
| 20260830121549 | 18 | 337 | 1.6 | 3.2 | 0.00 | 0.00 | 0.00 | 82 | 1021.8 |
| 20260830121032 | 18 | 337 | 0.0 | 1.6 | 0.00 | 0.00 | 0.00 | 83 | 1021.9 |
| 20260830120531 | 18 | 337 | 0.0 | 1.6 | 0.00 | 0.00 | 0.00 | 83 | 1021.7 |
| 20260830120031 | 18 | 337 | 0.0 | 1.6 | 0.00 | 0.00 | 0.00 | 82 | 1021.8 |
| 20260830115549 | 18 | 337 | 0.0 | 1.6 | 0.00 | 0.00 | 0.00 | 82 | 1021.8 |
| 20260830115029 | 18 | 337 | 0.0 | 0.0 | 0.00 | 0.00 | 0.00 | 83 | 1021.8 |
| 20260830114527 | 18 | 337 | 0.0 | 0.0 | 0.00 | 0.00 | 0.00 | 83 | 1021.7 |
| 20260830114053 | 18 | 337 | 0.0 | 0.0 | 0.00 | 0.00 | 0.00 | 82 | 1021.7 |
| 20260830113554 | 18 | 337 | 0.0 | 0.0 | 0.00 | 0.00 | 0.00 | 83 | 1021.7 |
| 20260830113033 | 17 | 337 | 0.0 | 0.0 | 0.00 | 0.00 | 0.00 | 83 | 1021.8 |
| 20260830112531 | 17 | 337 | 0.0 | 0.0 | 0.00 | 0.00 | 0.00 | 84 | 1021.8 |
| 20260830112056 | 17 | 337 | 0.0 | 0.0 | 0.00 | 0.00 | 0.00 | 83 | 1021.7 |
| 20260830111534 | 17 | 337 | 0.0 | 0.0 | 0.00 | 0.00 | 0.00 | 83 | 1021.7 |
| 20260830111033 | 17 | 337 | 0.0 | 1.6 | 0.00 | 0.00 | 0.00 | 83 | 1021.7 |
| 20260830110532 | 17 | 337 | 0.0 | 3.2 | 0.00 | 0.00 | 0.00 | 82 | 1021.6 |
| 20260830110033 | 17 | 337 | 0.0 | 3.2 | 0.00 | 0.00 | 0.00 | 83 | 1021.7 |
| 20260830105532 | 17 | 337 | 0.0 | 0.0 | 0.00 | 0.00 | 0.00 | 83 | 1021.7 |
| 20260830105032 | 17 | 337 | 0.0 | 1.6 | 0.00 | 0.00 | 0.00 | 82 | 1021.7 |
| 20260830104551 | 17 | 337 | 0.0 | 3.2 | 0.00 | 0.00 | 0.00 | 83 | 1021.6 |
| 20260830104034 | 17 | 337 | 0.0 | 3.2 | 0.00 | 0.00 | 0.00 | 82 | 1021.6 |
| 20260830103553 | 17 | 337 | 0.0 | 1.6 | 0.00 | 0.00 | 0.00 | 82 | 1021.8 |
| 20260830103057 | 17 | 337 | 0.0 | 3.2 | 0.00 | 0.00 | 0.00 | 81 | 1021.6 |
| 20260830102534 | 18 | 337 | 0.0 | 3.2 | 0.00 | 0.00 | 0.00 | 82 | 1021.6 |
| 20260830102034 | 18 | 337 | 1.6 | 3.2 | 0.00 | 0.00 | 0.00 | 82 | 1021.5 |
| 20260830101532 | 18 | 337 | 0.0 | 3.2 | 0.00 | 0.00 | 0.00 | 82 | 1021.6 |
| 20260830101033 | 18 | 337 | 1.6 | 3.2 | 0.00 | 0.00 | 0.00 | 83 | 1021.6 |
| 20260830100531 | 18 | 337 | 0.0 | 0.0 | 0.00 | 0.00 | 0.00 | 82 | 1021.6 |
| 20260830100030 | 18 | 337 | 0.0 | 1.6 | 0.00 | 0.00 | 0.00 | 82 | 1021.6 |
| 20260830095548 | 18 | 337 | 0.0 | 4.8 | 0.00 | 0.00 | 0.00 | 83 | 1021.7 |
| 20260830095054 | 18 | 337 | 3.2 | 6.4 | 0.00 | 0.00 | 0.00 | 83 | 1021.7 |
| 20260830094530 | 18 | 337 | 4.8 | 6.4 | 0.00 | 0.00 | 0.00 | 82 | 1021.8 |
| 20260830094031 | 18 | 337 | 0.0 | 0.0 | 0.00 | 0.00 | 0.00 | 82 | 1021.6 |
| 20260830093532 | 18 | 337 | 0.0 | 0.0 | 0.00 | 0.00 | 0.00 | 82 | 1021.5 |
| 20260830093032 | 18 | 337 | 0.0 | 0.0 | 0.00 | 0.00 | 0.00 | 82 | 1021.7 |
| 20260830092550 | 18 | 337 | 0.0 | 0.0 | 0.00 | 0.00 | 0.00 | 82 | 1021.6 |
| 20260830092030 | 18 | 337 | 0.0 | 0.0 | 0.00 | 0.00 | 0.00 | 81 | 1021.6 |
| 20260830091528 | 18 | 337 | 0.0 | 0.0 | 0.00 | 0.00 | 0.00 | 81 | 1021.7 |
| 20260830091028 | 18 | 337 | 0.0 | 0.0 | 0.00 | 0.00 | 0.00 | 81 | 1021.6 |
| 20260830090531 | 18 | 337 | 0.0 | 0.0 | 0.00 | 0.00 | 0.00 | 81 | 1021.6 |
| 20260830090031 | 18 | 337 | 0.0 | 0.0 | 0.00 | 0.00 | 0.00 | 81 | 1021.6 |
| 20260830085528 | 18 | 337 | 0.0 | 0.0 | 0.00 | 0.00 | 0.00 | 81 | 1021.7 |
| 20260830085054 | 18 | 337 | 0.0 | 3.2 | 0.00 | 0.00 | 0.00 | 81 | 1021.6 |
| 20260830084531 | 18 | 337 | 0.0 | 3.2 | 0.00 | 0.00 | 0.00 | 80 | 1021.6 |
| 20260830084031 | 18 | 337 | 3.2 | 3.2 | 0.00 | 0.00 | 0.00 | 81 | 1021.7 |
| 20260830083530 | 18 | 337 | 0.0 | 6.4 | 0.00 | 0.00 | 0.00 | 79 | 1021.8 |
| 20260830083030 | 18 | 337 | 0.0 | 8.0 | 0.00 | 0.00 | 0.00 | 79 | 1021.9 |
| 20260830082532 | 18 | 336 | 4.8 | 8.0 | 0.00 | 0.00 | 0.00 | 80 | 1022.0 |
| 20260830082056 | 18 | 302 | 4.8 | 8.0 | 0.00 | 0.00 | 0.00 | 79 | 1022.0 |
| 20260830081533 | 18 | 324 | 0.0 | 3.2 | 0.00 | 0.00 | 0.00 | 80 | 1022.0 |
| 20260830081033 | 18 | 324 | 1.6 | 4.8 | 0.00 | 0.00 | 0.00 | 80 | 1022.2 |
| 20260830080532 | 18 | 324 | 3.2 | 4.8 | 0.00 | 0.00 | 0.00 | 81 | 1022.2 |